TimeCST,TemperatureF,Dew PointF,Humidity,Sea Level PressureIn,VisibilityMPH,Wind Direction,Wind SpeedMPH,Gust SpeedMPH,PrecipitationIn,Events,Conditions,WindDirDegrees,DateUTC
12:53 AM,44.1,26.1,49,30.33,10.0,North,12.7,21.9,N/A,,Clear,350,2013-11-24 06:53:00
1:53 AM,43.0,25.0,49,30.34,10.0,North,9.2,-,N/A,,Clear,350,2013-11-24 07:53:00
2:53 AM,42.1,21.9,45,30.36,10.0,North,12.7,-,N/A,,Clear,10,2013-11-24 08:53:00
3:53 AM,39.9,23.0,51,30.36,10.0,North,6.9,-,N/A,,Clear,360,2013-11-24 09:53:00
4:53 AM,37.9,23.0,55,30.39,10.0,North,8.1,-,N/A,,Clear,350,2013-11-24 10:53:00
5:53 AM,36.0,21.9,57,30.42,10.0,North,11.5,17.3,N/A,,Clear,360,2013-11-24 11:53:00
6:53 AM,36.0,21.9,57,30.44,10.0,North,10.4,17.3,N/A,,Clear,10,2013-11-24 12:53:00
7:53 AM,37.0,21.0,52,30.47,10.0,North,12.7,-,N/A,,Clear,360,2013-11-24 13:53:00
8:53 AM,39.9,19.9,45,30.48,10.0,North,15.0,-,N/A,,Clear,360,2013-11-24 14:53:00
9:53 AM,44.1,18.0,35,30.46,10.0,North,15.0,20.7,N/A,,Clear,10,2013-11-24 15:53:00
10:53 AM,46.9,16.0,29,30.44,10.0,North,15.0,-,N/A,,Clear,350,2013-11-24 16:53:00
11:53 AM,51.1,15.1,24,30.38,10.0,NNE,11.5,-,N/A,,Clear,20,2013-11-24 17:53:00
12:53 PM,52.0,12.9,21,30.36,10.0,NNE,11.5,18.4,N/A,,Clear,30,2013-11-24 18:53:00
1:53 PM,54.0,12.9,20,30.34,10.0,NNE,9.2,17.3,N/A,,Clear,20,2013-11-24 19:53:00
2:53 PM,55.0,12.0,18,30.36,10.0,North,10.4,-,N/A,,Clear,10,2013-11-24 20:53:00
3:53 PM,52.0,12.0,20,30.36,10.0,NNE,8.1,-,N/A,,Clear,20,2013-11-24 21:53:00
4:53 PM,48.9,15.1,26,30.36,10.0,North,6.9,-,N/A,,Clear,360,2013-11-24 22:53:00
5:53 PM,45.0,15.1,30,30.38,10.0,North,9.2,-,N/A,,Clear,360,2013-11-24 23:53:00
6:53 PM,42.1,17.1,37,30.39,10.0,North,5.8,-,N/A,,Clear,10,2013-11-25 00:53:00
7:53 PM,39.9,18.0,41,30.40,10.0,North,5.8,-,N/A,,Clear,10,2013-11-25 01:53:00
8:53 PM,39.0,19.0,45,30.42,10.0,NNE,3.5,-,N/A,,Clear,30,2013-11-25 02:53:00
9:53 PM,37.9,19.0,47,30.41,10.0,NE,6.9,-,N/A,,Clear,40,2013-11-25 03:53:00
10:53 PM,39.0,18.0,43,30.40,10.0,NE,6.9,-,N/A,,Clear,40,2013-11-25 04:53:00
11:53 PM,39.0,19.0,45,30.40,10.0,ENE,6.9,-,N/A,,Clear,60,2013-11-25 05:53:00